Location: Garden of he Gods Recreation Area
(37.6010°N, 88.3780°W)
Time: 01:39:09
(UTC-05:00)

Hubble Space Telescope - Visible Passes

Search period start: 22 July 2018 00:00
Search period end: 01 August 2018 00:00
Orbit: 537 x 541 km, 28.5° (Epoch: 21 July)

Date Brightness Start Highest point End Pass type
(mag) Time Alt. Az. Time Alt. Az. Time Alt. Az.
22 Jul 2.7 03:53:17 16° SSE 03:53:17 16° SSE 03:54:38 10° SE visible
23 Jul 3.3 03:44:00 10° SE 03:44:00 10° SE 03:44:04 10° SE visible
28 Jul 2.9 21:34:02 10° SSW 21:35:06 13° S 21:35:06 13° S visible
29 Jul 2.5 21:23:15 10° SSW 21:25:45 17° S 21:25:45 17° S visible
30 Jul 2.3 21:12:33 10° SW 21:15:30 19° S 21:16:15 18° SSE visible
31 Jul 2.3 21:01:57 10° SW 21:05:03 20° S 21:06:36 17° SE visible
